When you browse on this site, cookies collect data to enhance your experience and personalize the content and advertising you see.
Visit our Privacy Policy to learn more. By continuing to use the site, you agree to this use of cookies and data.
  • en France
  • Liste des pays
  • À 7 jours
  • Température de l'eau
  • Carte satellitaire
  • Carte météo
  • Widgets météo
  • user-avatar
    Se connecter

    Météo par heure à Koumassi

    Ce jour, 24 Mai, Vendredi

    Heure Température Précipitation Vent Pression Humidité
    00:00 +29°C° 0 mm 2 m/s 755 mmHg 83%
    01:00 +29°C° 0.2 mm 2 m/s 755 mmHg 84%
    02:00 +29°C° 0.2 mm 2 m/s 755 mmHg 86%
    03:00 +29°C° 0.2 mm 2 m/s 755 mmHg 87%
    04:00 +28°C° 0 mm 1 m/s 755 mmHg 87%
    05:00 +28°C° 0 mm 1 m/s 755 mmHg 88%
    06:00 +28°C° 0 mm 1 m/s 755 mmHg 86%
    07:00 +30°C° 0 mm 2 m/s 755 mmHg 78%
    08:00 +32°C° 0 mm 2 m/s 756 mmHg 70%
    09:00 +34°C° 0 mm 2 m/s 756 mmHg 62%
    10:00 +36°C° 0 mm 3 m/s 756 mmHg 56%
    11:00 +37°C° 0 mm 3 m/s 755 mmHg 51%
    12:00 +38°C° 0 mm 4 m/s 755 mmHg 46%
    13:00 +38°C° 0 mm 4 m/s 754 mmHg 47%
    14:00 +38°C° 0 mm 4 m/s 754 mmHg 48%
    15:00 +37°C° 0 mm 5 m/s 753 mmHg 49%
    16:00 +36°C° 0 mm 4 m/s 753 mmHg 55%
    17:00 +34°C° 0 mm 4 m/s 754 mmHg 61%
    18:00 +33°C° 0 mm 4 m/s 754 mmHg 66%
    19:00 +32°C° 0.1 mm 4 m/s 754 mmHg 70%
    20:00 +31°C° 0.1 mm 3 m/s 754 mmHg 73%
    21:00 +30°C° 0.1 mm 3 m/s 755 mmHg 76%
    22:00 +30°C° 0 mm 3 m/s 755 mmHg 77%
    23:00 +30°C° 0 mm 3 m/s 755 mmHg 79%

    Demain, 25 Mai, Samedi

    Heure Température Précipitation Vent Pression Humidité
    00:00 +30°C° 0 mm 3 m/s 755 mmHg 80%
    01:00 +30°C° 0 mm 3 m/s 755 mmHg 81%
    02:00 +29°C° 0 mm 3 m/s 755 mmHg 82%
    03:00 +29°C° 0 mm 3 m/s 754 mmHg 84%
    04:00 +29°C° 0 mm 2 m/s 755 mmHg 84%
    05:00 +29°C° 0 mm 2 m/s 755 mmHg 85%
    06:00 +29°C° 0 mm 1 m/s 755 mmHg 86%
    07:00 +30°C° 0 mm 2 m/s 756 mmHg 78%
    08:00 +32°C° 0 mm 2 m/s 756 mmHg 69%
    09:00 +35°C° 0 mm 3 m/s 756 mmHg 61%
    10:00 +35°C° 0 mm 3 m/s 756 mmHg 58%
    11:00 +36°C° 0 mm 3 m/s 756 mmHg 55%
    12:00 +37°C° 0 mm 4 m/s 756 mmHg 53%
    13:00 +36°C° 0.7 mm 4 m/s 755 mmHg 56%
    14:00 +36°C° 0.7 mm 4 m/s 754 mmHg 59%
    15:00 +35°C° 0.7 mm 4 m/s 753 mmHg 62%
    16:00 +34°C° 0.7 mm 4 m/s 754 mmHg 67%
    17:00 +33°C° 0.7 mm 3 m/s 754 mmHg 71%
    18:00 +31°C° 0.7 mm 3 m/s 754 mmHg 75%
    19:00 +31°C° 0 mm 3 m/s 755 mmHg 77%
    20:00 +30°C° 0 mm 3 m/s 755 mmHg 79%
    21:00 +30°C° 0 mm 3 m/s 756 mmHg 81%
    22:00 +29°C° 0.6 mm 3 m/s 756 mmHg 83%
    23:00 +29°C° 0.6 mm 3 m/s 756 mmHg 84%

    Après-demain, 26 Mai, Dimanche

    Heure Température Précipitation Vent Pression Humidité
    00:00 +29°C° 0.6 mm 3 m/s 756 mmHg 86%
    01:00 +29°C° 1.5 mm 3 m/s 756 mmHg 87%
    02:00 +28°C° 1.5 mm 3 m/s 755 mmHg 87%
    03:00 +28°C° 1.5 mm 2 m/s 755 mmHg 88%
    04:00 +28°C° 0 mm 2 m/s 755 mmHg 88%
    05:00 +28°C° 0 mm 2 m/s 755 mmHg 89%
    06:00 +28°C° 0 mm 2 m/s 755 mmHg 89%
    07:00 +29°C° 0 mm 2 m/s 756 mmHg 84%
    08:00 +30°C° 0 mm 3 m/s 756 mmHg 78%
    09:00 +31°C° 0 mm 3 m/s 757 mmHg 73%
    10:00 +33°C° 0 mm 3 m/s 757 mmHg 68%
    11:00 +33°C° 0 mm 3 m/s 756 mmHg 64%
    12:00 +34°C° 0 mm 3 m/s 756 mmHg 59%
    13:00 +35°C° 0 mm 3 m/s 755 mmHg 58%
    14:00 +35°C° 0 mm 4 m/s 755 mmHg 57%
    15:00 +35°C° 0 mm 4 m/s 754 mmHg 56%
    16:00 +34°C° 0 mm 4 m/s 754 mmHg 61%
    17:00 +33°C° 0 mm 4 m/s 754 mmHg 65%
    18:00 +32°C° 0 mm 4 m/s 755 mmHg 70%
    19:00 +30°C° 0 mm 4 m/s 755 mmHg 72%
    20:00 +30°C° 0 mm 4 m/s 756 mmHg 73%
    21:00 +29°C° 0 mm 3 m/s 756 mmHg 75%
    22:00 +29°C° 0 mm 3 m/s 756 mmHg 76%
    23:00 +29°C° 0 mm 3 m/s 756 mmHg 76%

    27 Mai, Lundi

    Heure Température Précipitation Vent Pression Humidité
    00:00 +29°C° 0 mm 3 m/s 755 mmHg 77%
    01:00 +29°C° 0 mm 3 m/s 755 mmHg 77%
    02:00 +29°C° 0 mm 3 m/s 755 mmHg 78%
    03:00 +28°C° 0 mm 2 m/s 754 mmHg 78%
    04:00 +28°C° 0 mm 2 m/s 755 mmHg 80%
    05:00 +28°C° 0 mm 2 m/s 755 mmHg 81%
    06:00 +28°C° 0 mm 2 m/s 755 mmHg 83%
    07:00 +29°C° 0 mm 2 m/s 756 mmHg 75%
    08:00 +31°C° 0 mm 3 m/s 756 mmHg 67%
    09:00 +34°C° 0 mm 3 m/s 757 mmHg 59%
    10:00 +35°C° 0 mm 3 m/s 756 mmHg 53%
    11:00 +37°C° 0 mm 3 m/s 755 mmHg 48%
    12:00 +38°C° 0 mm 3 m/s 755 mmHg 42%
    13:00 +38°C° 0 mm 4 m/s 754 mmHg 44%
    14:00 +37°C° 0 mm 5 m/s 753 mmHg 46%
    15:00 +38°C° 0 mm 6 m/s 753 mmHg 49%
    16:00 +35°C° 0 mm 5 m/s 753 mmHg 55%
    17:00 +34°C° 0 mm 5 m/s 754 mmHg 61%
    18:00 +32°C° 0 mm 5 m/s 754 mmHg 68%
    19:00 +32°C° 0.1 mm 5 m/s 755 mmHg 71%
    20:00 +30°C° 0.1 mm 4 m/s 755 mmHg 74%
    21:00 +30°C° 0.1 mm 4 m/s 756 mmHg 78%
    22:00 +30°C° 0 mm 4 m/s 756 mmHg 79%
    23:00 +29°C° 0 mm 4 m/s 756 mmHg 80%

    28 Mai, Mardi

    Heure Température Précipitation Vent Pression Humidité
    00:00 +29°C° 0 mm 4 m/s 755 mmHg 81%
    01:00 +29°C° 0 mm 3 m/s 755 mmHg 81%
    02:00 +29°C° 0 mm 3 m/s 755 mmHg 82%
    03:00 +29°C° 0 mm 3 m/s 755 mmHg 82%
    04:00 +29°C° 0 mm 3 m/s 755 mmHg 82%
    05:00 +29°C° 0 mm 3 m/s 755 mmHg 83%
    06:00 +28°C° 0 mm 2 m/s 755 mmHg 83%
    07:00 +30°C° 0 mm 3 m/s 756 mmHg 76%
    08:00 +33°C° 0 mm 3 m/s 756 mmHg 68%
    09:00 +34°C° 0 mm 3 m/s 756 mmHg 60%
    10:00 +35°C° 0 mm 3 m/s 756 mmHg 55%
    11:00 +37°C° 0 mm 4 m/s 755 mmHg 51%
    12:00 +38°C° 0 mm 4 m/s 755 mmHg 46%
    13:00 +38°C° 0 mm 4 m/s 754 mmHg 47%
    14:00 +37°C° 0 mm 5 m/s 753 mmHg 49%
    15:00 +37°C° 0 mm 5 m/s 753 mmHg 50%
    16:00 +35°C° 0 mm 5 m/s 753 mmHg 56%
    17:00 +34°C° 0 mm 5 m/s 754 mmHg 63%
    18:00 +32°C° 0 mm 5 m/s 754 mmHg 69%
    19:00 +32°C° 0 mm 4 m/s 755 mmHg 72%
    20:00 +30°C° 0 mm 4 m/s 755 mmHg 74%
    21:00 +30°C° 0 mm 4 m/s 756 mmHg 77%
    22:00 +30°C° 0 mm 4 m/s 755 mmHg 78%
    23:00 +30°C° 0 mm 4 m/s 755 mmHg 79%

    29 Mai, Mercredi

    Heure Température Précipitation Vent Pression Humidité
    00:00 +29°C° 0 mm 3 m/s 755 mmHg 81%
    01:00 +29°C° 0 mm 3 m/s 755 mmHg 81%
    02:00 +29°C° 0 mm 3 m/s 754 mmHg 81%
    03:00 +29°C° 0 mm 3 m/s 754 mmHg 81%
    04:00 +29°C° 0 mm 3 m/s 754 mmHg 81%
    05:00 +29°C° 0 mm 2 m/s 755 mmHg 82%
    06:00 +29°C° 0 mm 2 m/s 755 mmHg 82%
    07:00 +30°C° 0 mm 2 m/s 756 mmHg 78%
    08:00 +31°C° 0 mm 3 m/s 756 mmHg 74%
    09:00 +31°C° 0 mm 3 m/s 756 mmHg 70%
    10:00 +33°C° 0 mm 3 m/s 756 mmHg 66%
    11:00 +34°C° 0 mm 3 m/s 755 mmHg 61%
    12:00 +35°C° 0 mm 3 m/s 755 mmHg 57%
    13:00 +35°C° 0 mm 4 m/s 754 mmHg 57%
    14:00 +35°C° 0 mm 4 m/s 754 mmHg 57%
    15:00 +35°C° 0 mm 5 m/s 753 mmHg 57%
    16:00 +34°C° 0 mm 5 m/s 753 mmHg 62%
    17:00 +33°C° 0 mm 4 m/s 754 mmHg 66%
    18:00 +32°C° 0 mm 4 m/s 754 mmHg 71%
    19:00 +32°C° 0 mm 4 m/s 754 mmHg 74%
    20:00 +30°C° 0 mm 4 m/s 755 mmHg 77%
    21:00 +30°C° 0 mm 4 m/s 755 mmHg 80%
    22:00 +30°C° 0 mm 3 m/s 755 mmHg 81%
    23:00 +29°C° 0 mm 3 m/s 755 mmHg 82%
    Voir plus